Henderson, NV

8:54 AM PST on December 10, 2016 (GMT -0800)
Henderson

Weather History for KHND - July, 2013

Change the Weather History Date:

Wednesday, July 31, 2013

  Actual Average (KLAS) Record (KLAS)
Temperature  
Mean Temperature 92 °F -  
Max Temperature 106 °F 104 °F 115 °F (1977)
Min Temperature 77 °F 77 °F 65 °F (1940)
Cooling Degree Days 26    
Growing Degree Days 42 (Base 50)    
Moisture  
Dew Point 46 °F    
Average Humidity 21    
Maximum Humidity 38    
Minimum Humidity 11    
Precipitation  
Precipitation 0.00 in - - ()
Sea Level Pressure  
Sea Level Pressure 29.91 in    
Wind  
Wind Speed 8 mph (SSW)    
Max Wind Speed 22 mph    
Max Gust Speed 28 mph    
Visibility 10 miles    
Events      
Averages and records for this station are not official NWS values.
T = Trace of Precipitation, MM = Missing Value Source: NWS Daily Summary

Daily Weather History Graph

Daily Weather History Graph

Search for Another Location

Airport or City:

Trip Planner

Search our weather history database for the weather conditions in past years. The results will help you decide how hot, cold, wet, or windy it might be!

Date:

Astronomy

Jul. 31, 2013 Rise Set
Actual Time 5:47 AM PDT 7:45 PM PDT
Civil Twilight 5:19 AM PDT 8:14 PM PDT
Nautical Twilight 4:44 AM PDT 8:48 PM PDT
Astronomical Twilight 4:07 AM PDT 9:25 PM PDT
Moon 12:45 AM PDT (7/31) 3:05 PM PDT (7/31)
Length of Visible Light 14h 54m
Length of Day
13h 58m
Waning Crescent, 31% of the Moon is Illuminated
Jul 31
Waning Crescent
Aug 6
New
Aug 14
First Quarter
Aug 20
Full
Aug 28
Last Quarter

Hourly Weather History & Observations

Time (PDT) Temp. Dew Point Humidity Pressure Visibility Wind Dir Wind Speed Gust Speed Precip Events Conditions
12:56 AM 86.0 °F 46.9 °F 26% 29.95 in 10.0 mi South 5.8 mph - N/A   Clear
1:56 AM 86.9 °F 46.9 °F 25% 29.95 in 10.0 mi SW 5.8 mph - N/A   Clear
2:56 AM 82.9 °F 47.8 °F 29% 29.95 in 10.0 mi SSW 3.5 mph - N/A   Clear
3:56 AM 79.9 °F 48.9 °F 34% 29.96 in 10.0 mi SSE 5.8 mph - N/A   Clear
4:56 AM 79.0 °F 47.8 °F 33% 29.96 in 10.0 mi WSW 5.8 mph - N/A   Clear
5:56 AM 77.9 °F 50.0 °F 38% 29.98 in 10.0 mi SSE 6.9 mph - N/A   Clear
6:56 AM 81.0 °F 50.0 °F 34% 29.99 in 10.0 mi SSE 8.1 mph - N/A   Clear
7:56 AM 86.0 °F 50.0 °F 29% 30.00 in 10.0 mi Calm Calm - N/A   Clear
8:56 AM 90.9 °F 52.0 °F 26% 30.00 in 10.0 mi North 3.5 mph - N/A   Clear
9:56 AM 95.0 °F 50.0 °F 22% 29.99 in 10.0 mi Variable 5.8 mph - N/A   Clear
10:56 AM 97.9 °F 46.9 °F 18% 29.98 in 10.0 mi Variable 6.9 mph - N/A   Clear
11:56 AM 99.9 °F 45.9 °F 16% 29.96 in 10.0 mi Variable 6.9 mph - N/A   Clear
12:56 PM 102.9 °F 43.9 °F 13% 29.92 in 10.0 mi WNW 9.2 mph - N/A   Clear
1:56 PM 104.9 °F 39.9 °F 11% 29.89 in 10.0 mi SW 15.0 mph 24.2 mph N/A   Clear
2:41 PM 105.8 °F 41.0 °F 11% 29.98 in 10.0 mi SSW 11.5 mph 19.6 mph N/A   Clear
2:56 PM 104.9 °F 41.9 °F 12% 29.87 in 10.0 mi South 11.5 mph - N/A   Clear
3:56 PM 106.0 °F 41.9 °F 11% 29.84 in 10.0 mi SW 21.9 mph 27.6 mph N/A   Clear
4:56 PM 104.9 °F 43.9 °F 13% 29.83 in 10.0 mi SSW 13.8 mph 24.2 mph N/A   Clear
5:56 PM 104.0 °F 43.9 °F 13% 29.81 in 10.0 mi SW 11.5 mph - N/A   Clear
6:56 PM 101.8 °F 43.9 °F 14% 29.81 in 10.0 mi SSW 15.0 mph - N/A   Clear
7:56 PM 99.0 °F 43.9 °F 15% 29.81 in 10.0 mi SSW 13.8 mph - N/A   Clear
8:56 PM 97.0 °F 46.9 °F 18% 29.83 in 10.0 mi SSW 12.7 mph - N/A   Clear
9:56 PM 93.9 °F 46.9 °F 20% 29.84 in 10.0 mi South 10.4 mph - N/A   Clear
10:56 PM 90.9 °F 47.8 °F 23% 29.84 in 10.0 mi South 6.9 mph - N/A   Clear
11:56 PM 90.9 °F 46.9 °F 22% 29.84 in 10.0 mi South 11.5 mph - N/A   Clear